Probability
0 0 0 0 0 0 0 0 0 0 0 0 0 0 0 0 0 0 0 0 0 0 0 0 0 0 0 3 3 3 0 0 3 0 0 0 0 0 0 3 3 3 3 3
0 0 0 0 0 0 0 0 0 0 0 0 0 0 0 0 0 0 0 0 0 0 0 0 0 0 0 0 0 3 0 0 3 0 0 0 0 0 0 3 3 3 3 3
0 0 0 0 0 0 0 0 0 0 0 0 0 0 0 0 0 0 0 0 0 0 0 0 0 0 0 0 0 0 0 0 0 0 0 0 0 0 0 0 3 3 3 3
0 0 0 0 0 0 0 0 0 0 0 0 0 0 0 0 0 0 0 0 0 0 0 0 0 0 0 0 0 0 0 0 0 0 0 0 0 0 0 0 3 3 3 3
0 0 0 0 0 0 0 0 0 0 0 0 0 0 0 0 0 0 0 0 0 0 0 0 0 0 0 0 0 0 0 0 0 0 0 0 0 0 0 0 0 3 3 3
0 0 0 0 0 0 0 0 0 0 0 0 0 0 0 0 0 0 0 0 0 0 0 0 0 0 0 0 0 0 0 0 0 0 0 0 0 0 0 0 0 0 3 3
0 0 0 0 0 0 0 0 0 0 0 0 0 0 0 0 0 0 0 0 0 0 0 0 0 0 0 0 0 0 3 0 0 0 0 0 0 0 0 0 0 0 0 0
0 0 0 0 0 0 0 0 0 0 0 0 0 0 0 0 0 0 0 0 0 0 0 0 0 0 0 0 0 3 3 0 0 0 0 0 0 0 0 0 0 0 0 0
0 0 0 0 0 0 0 0 0 0 0 0 0 0 0 0 0 0 0 0 0 0 0 0 0 0 0 0 0 3 3 0 0 0 0 0 0 0 0 0 0 0 0 0
0 0 0 0 0 0 0 0 0 0 0 0 0 0 0 0 0 0 0 0 0 0 0 0 0 0 0 0 0 3 0 0 0 0 0 0 0 0 0 0 0 0 0 0
0 0 0 0 0 0 0 0 0 0 0 0 0 0 0 0 0 0 0 0 0 0 0 0 0 0 0 0 0 0 0 0 0 0 0 0 0 0 0 0 0 0 0 0
0 0 0 0 0 0 0 0 0 0 0 0 0 0 0 0 0 0 0 0 0 0 0 0 0 0 0 0 0 0 0 0 0 0 0 0 0 0 0 0 0 0 0 0
0 0 0 0 0 0 0 0 0 0 0 0 0 0 0 0 0 0 0 0 0 0 0 0 0 0 0 0 0 0 0 0 0 0 0 0 0 0 0 0 0 0 0 0
0 0 0 0 0 0 0 0 0 0 0 0 0 0 0 0 0 0 0 0 0 0 0 0 0 0 0 0 0 0 0 0 0 0 0 0 0 0 0 0 0 0 0 0
0 0 0 0 0 0 0 0 0 0 0 0 0 0 0 0 0 0 0 0 0 0 0 0 0 0 0 0 0 0 0 0 0 0 0 0 0 0 0 0 0 0 0 0
0 0 0 0 0 0 0 0 0 0 0 0 0 0 0 0 0 0 0 0 0 0 0 0 0 0 0 0 0 0 0 0 0 0 0 0 0 0 0 0 0 0 0 0
0 0 0 0 0 0 0 0 0 0 0 0 0 0 0 0 0 0 0 0 0 0 0 0 0 0 0 0 0 0 0 0 0 0 0 0 0 0 0 0 0 0 0 0
0 0 0 0 0 0 0 0 0 0 0 0 0 0 0 0 0 0 0 0 0 0 0 0 0 0 0 0 0 0 0 0 0 0 0 0 0 0 0 0 0 0 0 0
0 0 0 0 0 0 0 0 0 0 0 0 0 0 0 0 0 0 0 0 0 0 0 0 0 0 0 0 0 0 0 0 0 0 0 0 0 0 0 0 0 0 0 0
0 0 0 0 0 0 0 0 0 0 0 0 0 0 0 0 0 0 0 0 0 0 0 0 0 0 0 0 0 0 0 0 0 0 0 0 0 0 0 0 0 0 0 0
0 0 0 0 0 0 0 0 0 0 0 0 0 0 0 0 0 0 0 0 0 0 0 0 0 0 0 0 0 0 0 0 0 0 0 0 0 0 0 0 0 0 0 0
0 0 0 0 0 0 0 0 0 0 0 0 0 0 0 0 0 0 0 0 0 0 0 0 0 0 0 0 0 0 0 0 0 0 0 0 0 0 0 0 0 0 0 0
0 0 0 0 0 0 0 0 0 0 0 0 0 0 0 0 0 0 0 0 0 0 0 0 0 0 0 0 0 0 0 0 0 0 0 0 0 0 0 0 0 0 0 0
0 0 0 0 0 0 0 0 0 0 0 0 0 0 0 0 0 0 0 0 0 0 0 0 0 0 0 0 0 0 0 0 0 0 0 0 0 0 0 0 0 0 0 0
0 0 0 0 0 0 0 0 0 0 0 0 0 0 0 0 0 0 0 0 0 0 0 0 0 0 0 0 0 0 0 0 0 0 0 0 0 0 0 0 0 0 0 0
0 0 0 0 0 0 0 0 0 0 0 0 0 0 0 0 0 0 0 0 0 0 0 0 0 0 0 0 0 0 0 0 0 0 0 0 0 0 0 0 0 0 0 0
Height
5713 5714 5714 5715 5715 5715 5715 5715 5716 5717 5717 5717 5718 5719 5721 5722 5723 5724 5725 5726 5727 5728 5730 5731 5733 5735 5737 5739 5742 5744 5747 5748 5750 5752 5754 5755 5757 5759 5760 5761 5761 5762 5762 5762
5706 5707 5707 5707 5707 5707 5707 5707 5708 5709 5709 5709 5710 5712 5713 5714 5715 5716 5716 5717 5717 5719 5720 5722 5724 5726 5727 5730 5732 5734 5737 5739 5740 5743 5744 5746 5747 5749 5751 5751 5752 5752 5753 5752
5698 5700 5699 5699 5699 5700 5700 5700 5701 5701 5701 5701 5702 5704 5706 5706 5706 5707 5707 5707 5708 5709 5711 5713 5715 5717 5718 5721 5723 5725 5727 5728 5730 5732 5734 5736 5737 5739 5741 5742 5742 5743 5743 5743
5690 5692 5692 5692 5692 5692 5693 5693 5693 5693 5693 5694 5694 5694 5698 5698 5698 5698 5699 5699 5699 5701 5702 5704 5706 5708 5710 5712 5713 5715 5717 5718 5720 5722 5724 5726 5727 5729 5731 5732 5732 5732 5733 5732
5683 5684 5684 5684 5685 5684 5685 5685 5685 5685 5685 5686 5686 5685 5689 5689 5689 5689 5690 5690 5691 5692 5693 5695 5697 5699 5701 5702 5704 5705 5707 5708 5710 5711 5713 5714 5716 5718 5719 5721 5722 5722 5722 5722
5675 5676 5676 5676 5677 5677 5677 5677 5677 5677 5677 5678 5679 5678 5679 5680 5680 5680 5681 5681 5682 5683 5684 5686 5687 5689 5691 5693 5694 5695 5696 5698 5699 5700 5701 5703 5705 5706 5708 5709 5710 5711 5711 5711
5667 5668 5668 5668 5668 5669 5669 5670 5669 5669 5669 5670 5671 5670 5672 5672 5671 5671 5672 5672 5672 5673 5675 5677 5678 5680 5682 5683 5684 5685 5686 5688 5689 5689 5690 5691 5693 5694 5696 5697 5698 5699 5700 5700
5659 5660 5661 5660 5661 5661 5661 5662 5662 5661 5661 5662 5662 5662 5665 5664 5663 5663 5663 5663 5663 5664 5666 5667 5669 5671 5672 5673 5675 5675 5676 5677 5678 5679 5679 5680 5681 5682 5684 5685 5686 5687 5688 5689
5650 5652 5653 5653 5653 5653 5653 5654 5654 5653 5652 5652 5653 5654 5656 5655 5655 5654 5654 5654 5655 5656 5657 5658 5660 5661 5662 5664 5665 5666 5666 5667 5668 5668 5668 5669 5669 5670 5672 5673 5674 5675 5676 5677
5642 5643 5645 5645 5645 5645 5646 5646 5646 5644 5643 5643 5644 5645 5647 5647 5646 5646 5645 5645 5646 5647 5648 5649 5650 5652 5653 5654 5655 5655 5656 5657 5658 5658 5658 5658 5658 5659 5660 5661 5662 5663 5664 5664
5634 5635 5637 5637 5638 5638 5638 5638 5637 5636 5636 5635 5634 5639 5638 5637 5636 5636 5636 5636 5636 5637 5638 5640 5641 5642 5643 5644 5645 5645 5646 5647 5647 5647 5647 5647 5647 5648 5648 5649 5650 5651 5652 5652
5626 5626 5627 5629 5629 5629 5629 5629 5629 5629 5628 5626 5626 5631 5629 5628 5627 5627 5626 5626 5627 5628 5629 5630 5631 5632 5633 5634 5635 5635 5636 5636 5637 5637 5637 5637 5637 5637 5637 5637 5638 5638 5639 5640
5618 5618 5618 5619 5622 5621 5620 5620 5620 5619 5618 5617 5617 5622 5620 5619 5618 5618 5618 5618 5619 5619 5620 5621 5622 5623 5623 5624 5625 5625 5626 5626 5626 5627 5627 5627 5627 5627 5627 5627 5627 5627 5627 5628
5609 5610 5611 5612 5611 5611 5611 5612 5611 5610 5609 5609 5610 5611 5612 5610 5610 5609 5610 5610 5610 5611 5611 5612 5612 5613 5614 5614 5615 5615 5616 5616 5616 5616 5617 5617 5616 5616 5616 5616 5615 5615 5616 5616
5601 5601 5602 5602 5602 5602 5602 5603 5602 5601 5601 5600 5601 5601 5603 5601 5600 5600 5601 5601 5601 5602 5602 5602 5603 5603 5604 5605 5605 5606 5606 5606 5606 5607 5607 5607 5606 5606 5605 5605 5604 5604 5605 5605
5592 5593 5593 5594 5594 5593 5593 5594 5594 5593 5592 5591 5591 5592 5593 5592 5591 5591 5591 5592 5592 5593 5593 5593 5594 5594 5595 5595 5596 5596 5596 5596 5596 5597 5597 5596 5595 5595 5595 5594 5593 5593 5594 5594
5584 5584 5584 5585 5585 5583 5585 5587 5586 5584 5584 5583 5582 5584 5583 5583 5582 5581 5581 5582 5583 5583 5583 5584 5584 5585 5585 5585 5585 5586 5585 5585 5585 5585 5585 5585 5585 5584 5584 5583 5583 5583 5583 5583
5576 5575 5574 5575 5576 5574 5579 5577 5576 5575 5575 5575 5574 5574 5574 5573 5573 5573 5573 5572 5573 5573 5574 5574 5574 5575 5575 5575 5575 5575 5574 5574 5574 5574 5574 5574 5574 5573 5573 5572 5572 5572 5572 5573
5568 5567 5566 5565 5564 5565 5569 5568 5567 5565 5566 5567 5566 5566 5565 5564 5564 5565 5564 5563 5563 5563 5564 5564 5564 5564 5565 5564 5564 5563 5563 5563 5564 5563 5563 5563 5563 5562 5562 5562 5561 5561 5562 5562
5560 5559 5559 5557 5555 5556 5561 5559 5557 5557 5557 5559 5557 5556 5556 5555 5555 5557 5556 5555 5554 5553 5553 5553 5554 5554 5554 5554 5553 5553 5553 5553 5553 5553 5552 5552 5552 5552 5551 5551 5551 5551 5551 5551
5553 5551 5551 5549 5547 5548 5551 5549 5548 5549 5550 5549 5548 5547 5547 5546 5546 5546 5545 5545 5544 5544 5543 5543 5543 5543 5543 5543 5543 5543 5542 5542 5542 5542 5542 5542 5541 5541 5541 5541 5540 5540 5541 5541
5545 5544 5543 5542 5541 5544 5542 5540 5540 5539 5539 5538 5538 5538 5537 5537 5536 5535 5535 5535 5535 5534 5534 5534 5534 5534 5534 5533 5533 5533 5532 5532 5532 5532 5532 5532 5531 5531 5530 5530 5530 5530 5530 5530
5537 5538 5536 5536 5537 5535 5533 5532 5531 5530 5530 5529 5529 5529 5528 5527 5526 5526 5525 5525 5525 5525 5525 5525 5524 5524 5524 5524 5523 5523 5523 5523 5523 5522 5522 5522 5521 5521 5521 5520 5520 5520 5520 5520
5530 5529 5528 5527 5528 5527 5525 5524 5523 5522 5521 5520 5520 5519 5518 5517 5517 5516 5516 5515 5515 5515 5515 5515 5515 5515 5514 5514 5513 5513 5513 5513 5513 5513 5512 5512 5512 5511 5511 5510 5510 5510 5510 5510
5522 5520 5519 5519 5520 5518 5518 5516 5515 5513 5512 5512 5511 5510 5509 5508 5507 5507 5506 5506 5505 5505 5505 5505 5505 5504 5504 5504 5503 5503 5503 5503 5503 5502 5502 5502 5501 5501 5501 5500 5500 5500 5500 5499
5514 5513 5511 5511 5511 5509 5509 5508 5506 5505 5504 5503 5501 5501 5500 5499 5498 5497 5497 5497 5496 5496 5496 5496 5495 5495 5494 5494 5493 5493 5493 5492 5492 5492 5492 5492 5491 5491 5491 5491 5491 5490 5490 5490
Wind_Speed
26 27 27 26 27 27 28 29 28 28 28 29 31 31 31 32 33 34 34 34 35 35 36 37 37 37 38 38 38 38 38 38 38 38 37 37 37 36 36 36 36 37 37 37
26 27 26 27 27 27 28 28 28 28 28 29 30 31 32 32 32 33 34 34 34 35 35 36 37 37 37 38 38 38 39 39 39 38 38 38 38 37 37 37 37 37 38 38
26 26 26 27 27 27 28 28 28 27 28 29 30 30 31 31 31 32 33 33 34 36 35 36 37 38 38 38 38 38 38 39 40 40 39 39 40 40 40 39 39 39 39 39
26 26 26 27 27 27 27 28 29 28 28 28 29 30 28 29 30 31 32 33 34 35 35 36 37 38 39 38 38 39 39 39 40 41 42 42 42 41 41 41 41 41 41 41
26 26 27 27 27 27 28 28 29 29 29 29 29 31 29 28 29 30 31 32 33 35 35 35 35 37 38 38 38 39 40 40 41 42 43 43 43 43 43 43 43 43 43 43
27 27 27 27 27 27 28 28 29 29 29 30 29 30 30 28 29 29 30 32 33 34 35 34 34 35 36 37 38 39 39 40 41 42 44 45 46 46 45 44 45 45 44 44
27 27 27 27 27 27 28 28 29 30 30 30 29 30 30 29 29 29 29 30 31 33 34 34 34 34 35 36 37 38 38 39 40 42 43 45 46 46 46 45 45 46 45 44
27 27 27 27 27 27 28 29 30 31 31 30 30 30 29 30 30 29 29 30 31 32 33 33 34 34 34 35 36 37 38 38 39 40 42 44 45 46 46 45 45 46 45 45
26 26 26 27 27 27 28 29 30 31 32 31 31 31 29 29 30 30 29 29 30 31 32 32 33 33 34 34 35 36 37 37 38 39 40 42 43 44 45 45 44 45 45 46
27 27 26 27 28 28 28 28 29 30 31 32 32 31 31 30 30 30 30 30 30 31 32 32 32 33 33 34 35 35 36 37 38 39 38 39 40 42 43 44 44 45 46 47
27 27 27 27 27 27 27 28 29 31 32 33 34 32 31 31 31 31 31 30 30 30 31 31 32 32 33 34 35 36 37 37 38 38 38 38 39 40 41 42 43 44 45 46
27 28 28 28 28 28 28 29 29 30 32 33 33 31 29 30 31 32 32 31 30 30 29 31 32 32 32 34 35 36 36 36 37 37 38 38 38 39 40 41 42 43 44 43
28 29 29 29 29 28 29 30 30 31 32 33 33 30 29 30 30 31 31 30 29 29 29 30 31 31 31 32 33 34 34 35 35 36 37 37 38 38 39 40 41 42 43 42
28 29 29 29 29 29 28 29 31 32 32 32 32 30 29 30 30 30 30 30 30 30 30 31 31 31 31 31 31 32 33 34 34 35 35 36 36 37 38 39 40 40 41 41
29 29 28 28 29 30 29 29 30 32 32 33 31 30 29 31 31 31 31 30 30 30 30 30 31 31 31 31 31 32 33 34 35 35 35 35 36 37 37 38 39 39 40 40
29 29 29 29 29 30 30 30 30 31 32 32 31 30 28 29 30 32 32 31 31 31 31 31 31 31 32 32 33 34 34 34 35 35 36 36 36 37 38 38 38 39 39 40
27 29 30 30 30 31 31 29 30 31 31 31 30 29 28 27 28 29 30 31 31 32 32 32 32 33 33 34 34 35 35 35 35 35 35 35 36 37 39 39 39 39 39 39
26 27 29 30 31 32 31 30 30 30 30 30 29 28 28 29 29 29 30 31 31 31 33 34 34 34 34 35 36 36 36 36 36 36 36 35 36 37 37 38 38 38 38 38
25 26 28 29 30 31 30 29 29 29 29 29 29 29 29 30 30 29 30 31 32 32 33 33 34 34 34 35 36 36 37 37 37 37 37 36 37 37 37 36 37 37 37 37
25 26 27 27 28 29 27 28 28 29 30 29 29 29 30 30 31 30 30 31 32 32 33 33 33 33 33 34 35 35 35 36 36 37 36 36 36 36 36 35 35 36 36 36
23 24 25 26 27 26 25 26 26 28 29 29 29 30 31 31 31 31 31 31 32 32 32 32 33 32 32 32 33 33 33 34 34 34 35 35 35 35 34 35 35 35 35 35
23 24 25 25 26 25 24 26 26 27 28 29 29 30 31 31 32 32 31 31 31 32 32 31 32 32 32 32 33 33 33 33 33 34 34 34 34 34 34 34 34 34 34 34
24 24 25 26 25 25 25 26 27 28 28 28 29 29 30 30 31 32 32 32 31 31 31 31 31 32 32 32 33 33 33 33 33 33 34 34 34 34 34 34 34 33 33 33
24 25 27 26 24 24 25 25 27 28 28 28 28 29 30 30 30 30 30 29 29 30 30 31 31 31 32 33 33 33 33 34 34 34 34 34 34 33 34 34 33 32 32 32
24 26 27 27 25 25 25 26 27 28 28 29 29 29 30 30 30 29 29 28 29 29 29 30 30 30 31 31 32 32 33 33 33 34 34 33 33 33 32 31 31 31 31 32
24 26 28 27 26 28 27 27 28 28 29 29 30 30 30 30 30 29 28 28 28 28 28 28 29 29 30 30 30 30 31 32 32 33 33 32 31 31 30 30 29 29 29 30
Wind_Direction
264 264 264 264 264 264 263 263 263 260 259 259 258 256 254 254 255 255 255 255 254 251 250 248 248 247 248 249 250 250 250 251 252 253 253 253 254 255 256 258 260 262 264 266
263 263 264 263 263 264 263 263 262 260 259 260 258 258 257 257 257 257 255 255 253 250 249 248 247 248 248 250 251 252 252 252 252 252 253 254 254 255 257 259 260 263 265 265
263 265 264 262 263 263 263 263 262 263 262 262 261 260 258 258 258 259 258 257 254 250 249 249 249 249 249 251 251 252 252 252 252 252 253 255 255 257 258 260 261 263 264 265
261 262 263 263 263 263 263 263 263 263 265 262 263 264 261 258 258 259 259 259 256 252 250 250 250 250 250 251 252 252 252 252 252 252 253 254 256 257 258 260 262 263 264 265
261 262 263 263 263 263 263 262 262 263 264 264 263 265 263 260 260 260 260 260 257 254 252 252 252 252 252 252 253 253 253 253 254 254 254 255 257 258 259 260 262 263 264 265
262 262 263 263 263 263 264 264 264 264 265 265 265 266 265 264 264 263 262 260 259 255 253 253 254 254 254 254 254 254 255 256 256 256 256 257 257 259 260 261 262 263 264 266
262 262 263 263 263 263 263 264 265 265 266 268 267 266 267 266 266 265 264 262 261 256 255 255 256 256 255 256 256 257 257 258 258 259 258 259 258 259 260 261 262 262 263 264
263 261 262 263 263 264 264 263 265 267 269 269 267 267 267 266 268 268 266 264 261 259 258 258 257 256 256 256 257 257 259 260 260 261 260 259 258 259 260 261 262 261 261 262
264 263 262 262 263 263 264 265 266 268 269 269 269 270 268 268 269 269 268 265 261 260 261 259 258 258 257 257 257 258 259 260 261 262 262 261 260 260 260 260 260 260 260 261
264 264 262 262 263 264 265 265 265 266 268 269 269 270 270 270 270 270 268 265 262 260 260 259 258 258 259 259 258 259 260 261 262 262 263 263 262 261 260 260 260 260 260 261
266 264 262 262 262 264 265 264 266 266 266 269 271 271 271 270 270 269 267 265 263 262 259 258 258 258 258 259 260 260 261 262 263 263 264 264 263 263 263 262 261 260 261 262
266 266 264 263 264 264 264 264 266 267 266 268 270 271 270 269 269 268 266 264 263 261 260 258 258 257 258 259 260 261 262 263 263 264 265 264 264 264 264 264 263 262 261 261
268 268 267 266 265 264 264 264 264 265 266 265 266 269 268 268 267 266 264 263 262 260 260 259 258 257 258 259 261 262 264 264 264 265 266 266 265 265 265 264 264 263 262 261
267 268 268 268 268 267 266 265 264 265 267 267 267 269 267 267 266 264 262 261 261 261 260 259 258 256 259 261 262 264 265 266 266 266 267 267 267 266 266 266 266 265 264 262
267 267 268 268 268 268 268 268 267 266 267 268 269 269 267 267 266 265 264 261 260 259 258 258 259 259 260 262 263 265 266 267 268 267 268 269 268 268 267 267 266 265 264 263
266 268 268 268 268 268 268 268 269 269 269 268 269 269 268 266 265 264 262 260 260 259 258 258 258 259 261 263 265 267 268 269 269 269 269 268 268 268 268 268 266 266 265 264
267 268 269 269 269 268 268 269 268 268 268 269 270 269 268 266 265 264 262 259 259 259 259 258 258 260 261 264 266 268 269 269 269 268 268 268 269 270 270 268 267 266 265 264
269 271 271 271 270 269 271 270 269 268 267 267 267 267 268 267 266 266 265 263 262 261 260 261 262 262 264 266 267 268 269 268 268 268 268 269 269 270 270 269 266 266 265 264
269 271 272 273 272 272 271 272 270 268 266 266 267 267 268 268 268 268 268 268 267 265 264 262 263 264 267 268 268 267 267 267 267 268 269 268 269 269 269 268 267 266 265 264
269 271 272 273 274 274 274 272 270 269 267 267 268 269 270 271 271 271 270 269 270 269 268 266 265 265 267 268 268 267 266 266 267 268 268 268 269 269 268 267 267 267 266 265
269 270 271 274 275 276 275 274 272 271 271 270 270 271 272 273 273 273 272 272 271 270 269 269 268 267 267 269 270 268 267 267 267 267 268 267 268 268 268 268 268 269 268 266
270 272 273 275 276 277 276 273 273 275 273 272 272 273 274 275 274 273 273 273 271 270 269 269 269 268 269 270 271 270 268 267 268 268 269 269 268 268 269 270 270 269 268 266
271 273 273 275 279 279 278 277 276 276 277 277 276 277 277 276 276 274 273 273 273 271 268 268 269 270 269 269 270 269 268 268 268 268 269 269 269 269 270 271 271 269 267 265
273 273 274 275 277 277 277 278 278 278 279 279 279 279 279 278 276 275 274 273 273 272 269 268 269 269 269 269 269 268 267 267 268 269 268 267 267 269 270 271 270 268 266 265
275 273 273 274 275 275 276 278 278 279 280 282 281 280 279 277 276 275 273 273 273 272 270 269 269 269 269 269 268 268 267 267 268 268 267 267 267 267 269 269 268 268 266 265
276 274 273 275 276 275 276 276 278 280 282 283 282 281 280 277 276 273 272 273 272 271 271 270 270 270 270 269 268 267 267 268 268 268 267 267 267 266 265 266 266 266 266 266